Weather Service Report


460 
ASUS44 KLIX 230910
RWRLIX
NEW ORLEANS REGIONAL WEATHER ROUNDUP
NATIONAL WEATHER SERVICE NEW ORLEANS LA
300 AM CST SUN NOV 23 2014

NOTE: "FAIR" INDICATES FEW OR NO CLOUDS BELOW 12,000 FEET WITH NO
      SIGNIFICANT WEATHER AND/OR OBSTRUCTIONS TO VISIBILITY.
      SKY/WX - SKY CONDITION AND SIGNIFICANT WEATHER.
      TMP - AIR TEMPERATURE.     DP    - DEWPOINT TEMPERATURE.
      RH  - RELATIVE HUMIDITY.   PRES  - PRESSURE.
      HI  - HEAT INDEX.          WCI   - WIND CHILL INDEX.

*  THESE STATIONS ARE NOT NWS OR FAA STATIONS AND ARE NOT UNDER
   NWS QUALITY CONTROL. 

LAZ038-040-048-061>063-065>067-069-231000-
SOUTHEAST LOUISIANA
  
CITY           SKY/WX    TMP DP  RH WIND       PRES   REMARKS
N.O. AUDUBON     N/A     61  61 100 MISG        N/A                   
N.O. INTL ARPT CLOUDY    63  60  90 E12G18    29.77F                  
N.O. LAKEFRONT CLOUDY    62  59  90 E14       29.78F                  
N.O. DOWNTOWN* CLOUDY    61  55  82 E13G18    29.78F                  
SLIDELL        CLOUDY    64  61  90 E7        29.79F                  
BATON ROUGE    CLOUDY    64  61  90 E14       29.78S                  
BOOTHVILLE     PTCLDY    65  65 100 SE6       29.78F                  
BELLE CHASSE   CLOUDY    62  59  90 E9        29.77F                  
BOGALUSA*        N/A     63  60  88 E5        29.83F FOG              
NEW ROADS*     LGT RAIN  64  62  94 SE12G17   29.77S                  
GONZALES*      CLOUDY    63  63 100 E3        29.77S                  
HAMMOND*       CLOUDY    64  61  88 E8        29.80F                  
HOUMA*         CLOUDY    65  64  97 E12G18    29.76F                  
PORT FOURCHON* PTSUNNY   68  66  94 SE15      29.79F                  

$$

MSZ070-080>082-231000-
SOUTHERN MISSISSIPPI
  
CITY           SKY/WX    TMP DP  RH WIND       PRES   REMARKS
MCCOMB         CLOUDY    61  59  93 E8        29.79F                  
GULFPORT       CLOUDY    63  62  97 E12       29.80F                  
BILOXI         CLOUDY    62  62 100 E8        29.81F                  
PASCAGOULA     CLOUDY    64  62  93 NE7       29.82F                  

$$

COASTAL OBSERVATIONS
LAKE AND NEARSHORE STATIONS
  
STATION/POSITION TIME  TEMP    WIND        PRES    WAVE
                       AIR SEA DIR/SP/G            HT/PER
                 (UTC) (F)     (DEG/KT/KT) (MB)    (FT/S)
PASCAGOULA       0900   64      50/  9/ 12 1009.3
WAVELAND YACHT   0900   63     100/ 13/ 18 1008.1
GRAND ISLE       0900   67 62  120/  5/  9 1008.5
SOUTHWEST PASS   0900   69 72              1008.6
NEW CANAL        0900   62 54   80/  5/ 12 1008.5
SHELL BEACH      0900   59 53   80/ 11/ 15 1008.5

OFFSHORE STATIONS
  
STATION/POSITION TIME  TEMP    WIND        PRES    WAVE
                       AIR SEA DIR/SP/G            HT/PER
                 (UTC) (F)     (DEG/KT/KT) (MB)    (FT/S)
64 S DAUPHIN ISL 0752   73 72  150/ 16/ 17 1009.3    8/ 8

$$



466 
ASUS44 KLIX 230910
RWRLA 
LOUISIANA WEATHER ROUNDUP
NATIONAL WEATHER SERVICE NEW ORLEANS LA
300 AM CST SUN NOV 23 2014

NOTE: "FAIR" INDICATES FEW OR NO CLOUDS BELOW 12,000 FEET WITH NO
      SIGNIFICANT WEATHER AND/OR OBSTRUCTIONS TO VISIBILITY.
      SKY/WX - SKY CONDITION AND SIGNIFICANT WEATHER.
      TMP - AIR TEMPERATURE.    DP   - DEWPOINT TEMPERATURE.
      RH  - RELATIVE HUMIDITY.  PRES - PRESSURE.
      HX  - HEAT INDEX.         WCI  - WIND CHILL INDEX.

*  THESE STATIONS ARE NOT NWS OR FAA STATIONS AND ARE NOT UNDER
   NWS QUALITY CONTROL.

LAZ040-048-061>063-065-066-069-231000-
SOUTHEAST LOUISIANA
  
CITY           SKY/WX    TMP DP  RH WIND       PRES   REMARKS
N.O. AUDUBON     N/A     61  61 100 MISG        N/A                   
N.O. INTL ARPT CLOUDY    63  60  90 E12G18    29.77F                  
N.O. LAKEFRONT CLOUDY    62  59  90 E14       29.78F                  
N.O. DOWNTOWN* CLOUDY    61  55  82 E13G18    29.78F                  
SLIDELL        CLOUDY    64  61  90 E7        29.79F                  
BATON ROUGE    CLOUDY    64  61  90 E14       29.78S                  
BOOTHVILLE     PTCLDY    65  65 100 SE6       29.78F                  
BELLE CHASSE   CLOUDY    62  59  90 E9        29.77F                  
BOGALUSA*        N/A     63  60  88 E5        29.83F FOG              
NEW ROADS*     LGT RAIN  64  62  94 SE12G17   29.77S                  
GONZALES*      CLOUDY    63  63 100 E3        29.77S                  
HAMMOND*       CLOUDY    64  61  88 E8        29.80F                  
HOUMA*         CLOUDY    65  64  97 E12G18    29.76F                  
PORT FOURCHON* PTSUNNY   68  66  94 SE15      29.79F                  

$$

LAZ041-044-053-054-231000-
SOUTHWEST LOUISIANA
  
CITY           SKY/WX    TMP DP  RH WIND       PRES   REMARKS
LAKE CHARLES   HVY RAIN  66  65  96 E16       29.62F FOG              
LAFAYETTE      LGT RAIN  65  64  97 E6        29.74F                  
PATTERSON      CLOUDY    66  64  94 NE12      29.75F                  
SALT POINT       N/A     69  66  90 SE7       29.71F                  
NEW IBERIA     LGT RAIN  67  64  90 E8        29.74F                  
CHENAULT AIRPK RAIN      65  64  98 E15G22    29.65F                  

$$

LAZ027-028-231000-
CENTRAL LOUISIANA
  
CITY           SKY/WX    TMP DP  RH WIND       PRES   REMARKS
FORT POLK      RAIN      63  63 100 VRB5      29.70F FOG              
ALEXANDRIA INT LGT RAIN  63  62  97 SE13      29.72F                  
ALEXANDRIA     LGT RAIN  64  62  93 SE10      29.74S                  

$$

LAZ001-002-231000-
NORTHWEST LOUISIANA
  
CITY           SKY/WX    TMP DP  RH WIND       PRES   REMARKS
SHREVEPORT     CLOUDY    63  62  97 SW6       29.68F                  
BARKSDALE AFB  CLOUDY    61  61 100 SE8       29.69F                  
DTN SHREVEPORT LGT RAIN  62  60  93 SE10      29.69F                  

$$

LAZ014-016-231000-
NORTHEAST LOUISIANA
  
CITY           SKY/WX    TMP DP  RH WIND       PRES   REMARKS
MONROE         CLOUDY    61  58  90 VRB5      29.74F                  
TALLULAH       LGT RAIN  62  58  86 SE13      29.76F                  

$$


Return to Home page


Western Regional Climate Center, wrcc@dri.edu